Location: Pinawa
(50.1500°N, 95.8830°W)
Time: 03:17:46
(UTC-05:00)

Amateur Radio Satellites - All Passes

Search period start: 28 July 2014 02:47
Search period end: 29 July 2014 02:47
Location: Pinawa, 50.1500°N, 95.8830°W

Satellite Date Start Highest point End Downlink Frequencies (MHz)
Time Altitude Azimuth
Oscar 16 28 Jul 02:48:26 02:53:29 51° 100° (E) 02:58:30 437.025 USB, Beacon 2401.1428
OPAL 28 Jul 03:02:23 03:06:18 24° 57° (ENE) 03:10:14 ?
ITAMSAT 1 28 Jul 03:07:04 03:11:50 35° 96° (E) 03:16:33 435.822 SSB
TMSAT-1 28 Jul 03:19:20 03:22:38 16° 87° (E) 03:25:54 436.925 FM
Oscar 10/S400 28 Jul 03:25:32 04:16:32 48° 199° (SSW) 11:01:48 145.825 - 145.975 CW/USB, Beacon 145.810 USB
AO-27 28 Jul 03:25:50 03:30:55 51° 100° (E) 03:35:56 436.795 MHz FM
Uribyol 2 28 Jul 03:26:40 03:31:45 54° 101° (E) 03:36:47 436.500 FM
Lituanica SAT-1 28 Jul 03:28:36 03:30:08 81° 15° (NNE) 03:31:39 437.275 MHz beacon
ISS 28 Jul 03:30:31 03:33:52 68° 354° (N) 03:37:15 145.800 FM
Gurwin Techsat 1B 28 Jul 03:42:01 03:46:48 33° 95° (E) 03:51:33 435.225 FM
Sapphire 28 Jul 03:42:28 03:47:25 35° 320° (NW) 03:52:23 437.095 MHz 1200 baud AX-25 AFSK
JAS-1B 28 Jul 03:55:41 04:05:18 62° 99° (E) 04:13:36 435.800 - 435.900 CW/SSB
Oscar 19 28 Jul 03:59:39 04:04:35 46° 293° (WNW) 04:09:30 437.125 CW, 437.150 USB
PCSat 28 Jul 04:17:06 04:21:28 24° 329° (NNW) 04:25:51 145.825 MHz
AO-Echo 28 Jul 04:24:40 04:29:41 52° 292° (WNW) 04:34:29 ?
Oscar 16 28 Jul 04:28:16 04:32:36 28° 299° (WNW) 04:36:56 437.025 USB, Beacon 2401.1428
MaSat-1 28 Jul 04:33:15 04:35:34 13° 23° (NNE) 04:37:54 437.345 MHz
OPAL 28 Jul 04:39:58 04:44:51 59° 256° (WSW) 04:49:47 ?
Uosat F 28 Jul 04:42:38 04:46:20 20° 91° (E) 04:50:00 435.120 FM
AO-7 28 Jul 04:43:32 04:50:20 27° 91° (E) 04:57:03 29.400 - 29.500 MHz
ITAMSAT 1 28 Jul 04:46:35 04:51:23 39° 295° (WNW) 04:56:09 435.822 SSB
TMSAT-1 28 Jul 04:57:55 05:03:15 84° 286° (WNW) 05:08:33 436.925 FM
Lituanica SAT-1 28 Jul 05:00:13 05:00:41 11° 213° (SSW) 05:01:09 437.275 MHz beacon
AO-27 28 Jul 05:05:48 05:10:12 28° 299° (WNW) 05:14:33 436.795 MHz FM
Uribyol 2 28 Jul 05:06:40 05:10:57 27° 300° (WNW) 05:15:13 436.500 FM
ISS 28 Jul 05:07:22 05:10:45 85° 16° (NNE) 05:14:07 145.800 FM
Gurwin Techsat 1B 28 Jul 05:21:53 05:26:54 43° 294° (WNW) 05:31:53 435.225 FM
STRAND 1 28 Jul 05:25:01 05:27:55 15° 53° (NE) 05:30:49 ?
Sapphire 28 Jul 05:29:23 05:32:30 15° 345° (NNW) 05:35:37 437.095 MHz 1200 baud AX-25 AFSK
JAS-1B 28 Jul 05:46:27 05:55:25 44° 303° (WNW) 06:03:26 435.800 - 435.900 CW/SSB
PCSat 28 Jul 06:04:19 06:06:55 13° 355° (N) 06:09:32 145.825 MHz
AO-Echo 28 Jul 06:06:27 06:07:17 10° 312° (NW) 06:08:07 ?
KITSAT 1 28 Jul 06:07:48 06:14:01 25° 105° (ESE) 06:20:14 435.175 FM
MaSat-1 28 Jul 06:09:36 06:14:28 35° 46° (NE) 06:19:16 437.345 MHz
Hamsat 28 Jul 06:11:31 06:13:24 13° 87° (E) 06:15:17 145.90 MHz
Uosat F 28 Jul 06:20:35 06:25:35 64° 290° (WNW) 06:30:32 435.120 FM
AO-7 28 Jul 06:35:40 06:44:04 83° 292° (WNW) 06:52:22 29.400 - 29.500 MHz
TMSAT-1 28 Jul 06:39:11 06:42:26 17° 306° (NW) 06:45:40 436.925 FM
ISS 28 Jul 06:44:16 06:47:15 29° 213° (SSW) 06:50:14 145.800 FM
JAS-2 28 Jul 06:55:17 07:00:34 29° 90° (E) 07:05:21 435.800 - 435.900 CW/SSB, 435.910 FM
STRAND 1 28 Jul 07:01:11 07:06:20 79° 72° (ENE) 07:11:30 ?
Sapphire 28 Jul 07:15:21 07:18:16 14° 12° (NNE) 07:21:12 437.095 MHz 1200 baud AX-25 AFSK
JAS-1B 28 Jul 07:38:01 07:43:24 17° 327° (NNW) 07:48:34 435.800 - 435.900 CW/SSB
Hamsat 28 Jul 07:45:38 07:49:57 82° 285° (WNW) 07:54:16 145.90 MHz
MaSat-1 28 Jul 07:46:54 07:52:04 52° 246° (WSW) 07:57:03 437.345 MHz
PCSat 28 Jul 07:49:00 07:52:37 18° 21° (NNE) 07:56:14 145.825 MHz
KITSAT 1 28 Jul 08:00:19 08:08:27 89° 127° (SE) 08:16:37 435.175 FM
Uosat F 28 Jul 08:01:24 08:03:27 13° 310° (NW) 08:05:30 435.120 FM
AO-7 28 Jul 08:29:16 08:35:48 27° 315° (NW) 08:42:19 29.400 - 29.500 MHz
Saudisat 1A 28 Jul 08:33:37 08:37:42 38° 121° (ESE) 08:41:49 436.775 MHz
JAS-2 28 Jul 08:40:01 08:46:05 53° 294° (WNW) 08:51:29 435.800 - 435.900 CW/SSB, 435.910 FM
STRAND 1 28 Jul 08:42:50 08:46:09 17° 272° (W) 08:49:28 ?
SO-67 28 Jul 08:49:58 08:53:28 85° 283° (WNW) 08:56:57 435.3500 MHz FM
Sapphire 28 Jul 08:58:40 09:03:29 31° 37° (NE) 09:08:16 437.095 MHz 1200 baud AX-25 AFSK
Hamsat 28 Jul 09:23:31 09:25:14 12° 304° (NW) 09:26:58 145.90 MHz
PCSat 28 Jul 09:32:07 09:37:23 48° 45° (NE) 09:42:38 145.825 MHz
UKube-1 28 Jul 09:57:08 10:00:30 21° 93° (E) 10:03:50 145.840 MHz, 145.915 MHz
KITSAT 1 28 Jul 09:57:28 10:04:51 37° 332° (NNW) 10:12:15 435.175 FM
HO-68 28 Jul 10:10:38 10:17:30 46° 99° (E) 10:24:18 435.675 MHz FM
Saudisat 1A 28 Jul 10:13:07 10:17:18 40° 321° (NW) 10:21:30 436.775 MHz
AO-7 28 Jul 10:24:24 10:25:45 11° 341° (NNW) 10:27:06 29.400 - 29.500 MHz
JAS-2 28 Jul 10:27:09 10:29:39 13° 317° (NW) 10:32:03 435.800 - 435.900 CW/SSB, 435.910 FM
Sapphire 28 Jul 10:41:57 10:47:21 68° 239° (WSW) 10:52:44 437.095 MHz 1200 baud AX-25 AFSK
Oscar 11 28 Jul 10:42:46 10:46:43 33° 96° (E) 10:50:39 145.825 FM, Beacon 2401.500 USB
FUNcube-1 28 Jul 11:02:26 11:05:36 21° 92° (E) 11:08:47 145.950 - 145.970 MHz USB
JAS-1B 28 Jul 11:13:35 11:15:59 11° 20° (NNE) 11:18:23 435.800 - 435.900 CW/SSB
PCSat 28 Jul 11:15:46 11:20:43 37° 246° (WSW) 11:25:39 145.825 MHz
UKube-1 28 Jul 11:32:45 11:36:58 48° 291° (WNW) 11:41:09 145.840 MHz, 145.915 MHz
Saudisat 1A 28 Jul 11:55:23 11:58:03 15° 344° (NNW) 12:00:43 436.775 MHz
KITSAT 1 28 Jul 11:56:15 12:02:48 26° 1° (N) 12:09:21 435.175 FM
HO-68 28 Jul 11:58:31 12:05:14 46° 300° (WNW) 12:11:55 435.675 MHz FM
Oscar 19 28 Jul 12:06:17 12:08:33 13° 51° (NE) 12:10:48 437.125 CW, 437.150 USB
Oscar 11 28 Jul 12:19:03 12:22:53 31° 294° (WNW) 12:26:42 145.825 FM, Beacon 2401.500 USB
Sapphire 28 Jul 12:27:50 12:29:46 12° 258° (WSW) 12:31:42 437.095 MHz 1200 baud AX-25 AFSK
AO-Echo 28 Jul 12:29:09 12:30:39 11° 49° (NE) 12:32:08 ?
Oscar 16 28 Jul 12:32:41 12:36:25 21° 57° (ENE) 12:40:11 437.025 USB, Beacon 2401.1428
FUNcube-1 28 Jul 12:38:16 12:42:16 45° 290° (WNW) 12:46:15 145.950 - 145.970 MHz USB
RS-15 28 Jul 12:40:33 12:47:46 20° 99° (E) 12:54:54 29.354 - 29.394 USB, Beacon 29.352 USB
ITAMSAT 1 28 Jul 12:52:55 12:56:04 16° 53° (NE) 12:59:13 435.822 SSB
JAS-1B 28 Jul 12:55:46 13:03:06 27° 45° (NE) 13:10:43 435.800 - 435.900 CW/SSB
SO-50 28 Jul 13:07:01 13:10:47 27° 117° (ESE) 13:14:37 436.795 FM
AO-27 28 Jul 13:10:56 13:14:53 22° 57° (ENE) 13:18:49 436.795 MHz FM
Uribyol 2 28 Jul 13:11:28 13:15:27 23° 58° (ENE) 13:19:27 436.500 FM
Gurwin Techsat 1B 28 Jul 13:30:46 13:33:49 16° 53° (NE) 13:36:52 435.225 FM
Saudisat 1A 28 Jul 13:37:13 13:39:25 13° 9° (N) 13:41:36 436.775 MHz
Oscar 19 28 Jul 13:41:55 13:46:58 66° 71° (ENE) 13:52:04 437.125 CW, 437.150 USB
HO-68 28 Jul 13:48:05 13:51:15 14° 322° (NW) 13:54:25 435.675 MHz FM
KITSAT 1 28 Jul 13:53:14 14:00:42 38° 30° (NNE) 14:08:08 435.175 FM
AO-7 28 Jul 13:58:51 14:04:09 19° 36° (NE) 14:09:27 29.400 - 29.500 MHz
AO-Echo 28 Jul 14:03:09 14:08:18 53° 69° (ENE) 14:13:28 ?
Oscar 16 28 Jul 14:10:11 14:15:17 72° 257° (WSW) 14:20:26 437.025 USB, Beacon 2401.1428
ITAMSAT 1 28 Jul 14:29:36 14:34:50 83° 73° (ENE) 14:40:04 435.822 SSB
JAS-1B 28 Jul 14:42:56 14:52:01 74° 68° (ENE) 15:01:56 435.800 - 435.900 CW/SSB
TMSAT-1 28 Jul 14:44:09 14:49:03 40° 65° (ENE) 14:53:58 436.925 FM
SO-50 28 Jul 14:46:41 14:51:06 53° 317° (NW) 14:55:38 436.795 FM
RS-15 28 Jul 14:47:05 14:58:04 72° 122° (ESE) 15:08:54 29.354 - 29.394 USB, Beacon 29.352 USB
AO-27 28 Jul 14:48:43 14:53:56 70° 257° (WSW) 14:59:10 436.795 MHz FM
Uribyol 2 28 Jul 14:49:20 14:54:31 66° 257° (WSW) 14:59:42 436.500 FM
Gurwin Techsat 1B 28 Jul 15:07:40 15:12:58 78° 72° (ENE) 15:18:19 435.225 FM
UOSAT-12 28 Jul 15:10:52 15:15:01 34° 119° (ESE) 15:19:15 437.025 FM, 437.400 FM
Saudisat 1A 28 Jul 15:16:37 15:20:26 27° 32° (NNE) 15:24:13 436.775 MHz
Oscar 19 28 Jul 15:23:05 15:26:48 20° 270° (W) 15:30:34 437.125 CW, 437.150 USB
AO-Echo 28 Jul 15:42:52 15:47:20 27° 268° (W) 15:51:50 ?
AO-7 28 Jul 15:47:11 15:55:15 55° 60° (ENE) 16:03:20 29.400 - 29.500 MHz
KITSAT 1 28 Jul 15:48:52 15:57:00 85° 235° (SW) 16:05:05 435.175 FM
Oscar 16 28 Jul 15:54:14 15:55:36 11° 276° (W) 15:56:58 437.025 USB, Beacon 2401.1428
Uosat F 28 Jul 16:00:02 16:04:50 45° 67° (ENE) 16:09:39 435.120 FM
ITAMSAT 1 28 Jul 16:11:47 16:15:00 16° 272° (W) 16:18:13 435.822 SSB
TMSAT-1 28 Jul 16:24:11 16:29:02 36° 264° (W) 16:33:55 436.925 FM
SO-50 28 Jul 16:29:28 16:32:40 18° 340° (NNW) 16:35:55 436.795 FM
AO-27 28 Jul 16:33:09 16:34:26 11° 276° (W) 16:35:43 436.795 MHz FM
Uribyol 2 28 Jul 16:34:33 16:35:00 10° 277° (W) 16:35:27 436.500 FM
JAS-1B 28 Jul 16:35:03 16:43:14 36° 271° (W) 16:52:08 435.800 - 435.900 CW/SSB
OPAL 28 Jul 16:45:24 16:49:29 24° 95° (E) 16:53:35 ?
Gurwin Techsat 1B 28 Jul 16:50:01 16:53:34 18° 272° (W) 16:57:09 435.225 FM
UOSAT-12 28 Jul 16:50:34 16:55:04 47° 319° (NW) 16:59:39 437.025 FM, 437.400 FM
Saudisat 1A 28 Jul 16:56:00 17:00:25 68° 233° (SW) 17:04:46 436.775 MHz
RS-15 28 Jul 17:00:29 17:11:07 51° 330° (NNW) 17:21:46 29.354 - 29.394 USB, Beacon 29.352 USB
Hamsat 28 Jul 17:09:22 17:12:06 17° 60° (ENE) 17:14:50 145.90 MHz
JAS-2 28 Jul 17:11:06 17:17:29 30° 58° (ENE) 17:23:26 435.800 - 435.900 CW/SSB, 435.910 FM
Uosat F 28 Jul 17:39:26 17:43:48 29° 266° (W) 17:48:12 435.120 FM
AO-7 28 Jul 17:40:24 17:48:16 44° 261° (W) 17:56:11 29.400 - 29.500 MHz
KITSAT 1 28 Jul 17:45:24 17:51:19 23° 256° (WSW) 17:57:13 435.175 FM
SO-50 28 Jul 18:12:33 18:15:01 14° 5° (N) 18:17:30 436.795 FM
OPAL 28 Jul 18:23:45 18:28:42 56° 294° (WNW) 18:33:41 ?
UOSAT-12 28 Jul 18:33:08 18:36:21 18° 342° (NNW) 18:39:34 437.025 FM, 437.400 FM
Saudisat 1A 28 Jul 18:38:54 18:39:09 10° 252° (WSW) 18:39:24 436.775 MHz
Hamsat 28 Jul 18:43:29 18:47:38 64° 259° (W) 18:51:50 145.90 MHz
JAS-2 28 Jul 18:54:12 19:02:00 77° 256° (WSW) 19:09:13 435.800 - 435.900 CW/SSB, 435.910 FM
HO-68 28 Jul 19:00:21 19:04:26 16° 42° (NE) 19:08:31 435.675 MHz FM
STRAND 1 28 Jul 19:08:05 19:11:38 19° 89° (E) 19:15:10 ?
RS-15 28 Jul 19:16:26 19:26:25 38° 3° (N) 19:36:32 29.354 - 29.394 USB, Beacon 29.352 USB
SO-67 28 Jul 19:27:21 19:30:47 65° 74° (ENE) 19:34:15 435.3500 MHz FM
SO-50 28 Jul 19:53:16 19:57:09 25° 29° (NNE) 20:01:06 436.795 FM
OPAL 28 Jul 20:04:52 20:06:36 12° 313° (NW) 20:08:20 ?
UOSAT-12 28 Jul 20:15:39 20:18:18 15° 7° (N) 20:20:58 437.025 FM, 437.400 FM
JAS-2 28 Jul 20:42:56 20:47:59 19° 275° (W) 20:52:52 435.800 - 435.900 CW/SSB, 435.910 FM
HO-68 28 Jul 20:43:47 20:50:44 56° 64° (ENE) 20:57:42 435.675 MHz FM
STRAND 1 28 Jul 20:46:16 20:51:23 71° 289° (WNW) 20:56:27 ?
UKube-1 28 Jul 20:56:53 21:00:50 34° 65° (ENE) 21:04:49 145.840 MHz, 145.915 MHz
SO-67 28 Jul 21:03:23 21:04:17 11° 272° (W) 21:05:12 435.3500 MHz FM
RS-15 28 Jul 21:30:37 21:41:26 59° 36° (NE) 21:52:32 29.354 - 29.394 USB, Beacon 29.352 USB
SO-50 28 Jul 21:33:34 21:38:19 88° 230° (SW) 21:43:08 436.795 FM
Oscar 11 28 Jul 21:42:10 21:46:18 46° 69° (ENE) 21:50:26 145.825 FM, Beacon 2401.500 USB
MaSat-1 28 Jul 21:42:51 21:46:34 30° 108° (ESE) 21:50:46 437.345 MHz
UOSAT-12 28 Jul 21:55:54 21:59:59 27° 31° (NNE) 22:04:02 437.025 FM, 437.400 FM
FUNcube-1 28 Jul 22:03:17 22:07:04 31° 66° (ENE) 22:10:47 145.950 - 145.970 MHz USB
STRAND 1 28 Jul 22:27:11 22:29:43 14° 309° (NW) 22:32:14 ?
HO-68 28 Jul 22:32:13 22:38:44 37° 264° (W) 22:45:17 435.675 MHz FM
UKube-1 28 Jul 22:33:12 22:37:05 30° 264° (W) 22:40:59 145.840 MHz, 145.915 MHz
SO-50 28 Jul 23:15:27 23:18:15 16° 249° (WSW) 23:21:05 436.795 FM
Oscar 11 28 Jul 23:19:24 23:22:44 22° 268° (W) 23:26:05 145.825 FM, Beacon 2401.500 USB
MaSat-1 28 Jul 23:19:32 23:23:44 43° 311° (NW) 23:28:31 437.345 MHz
UOSAT-12 28 Jul 23:35:53 23:40:38 77° 232° (SW) 23:45:20 437.025 FM, 437.400 FM
FUNcube-1 28 Jul 23:39:36 23:43:27 32° 264° (W) 23:47:16 145.950 - 145.970 MHz USB
RS-15 28 Jul 23:43:20 23:54:00 59° 242° (WSW) 00:05:02 29.354 - 29.394 USB, Beacon 29.352 USB
PCSat 29 Jul 00:21:20 00:24:08 14° 104° (ESE) 00:26:57 145.825 MHz
MaSat-1 29 Jul 01:00:01 01:02:29 14° 335° (NNW) 01:05:03 437.345 MHz
ISS 29 Jul 01:05:19 01:08:26 37° 150° (SSE) 01:11:35 145.800 FM
UOSAT-12 29 Jul 01:17:54 01:20:00 13° 251° (WSW) 01:22:06 437.025 FM, 437.400 FM
Sapphire 29 Jul 01:28:16 01:33:21 43° 116° (ESE) 01:38:28 437.095 MHz 1200 baud AX-25 AFSK
Oscar 19 29 Jul 01:49:53 01:53:08 17° 88° (E) 01:56:24 437.125 CW, 437.150 USB
RS-15 29 Jul 01:58:28 02:03:50 15° 266° (W) 02:09:19 29.354 - 29.394 USB, Beacon 29.352 USB
PCSat 29 Jul 02:01:17 02:06:41 78° 123° (ESE) 02:12:08 145.825 MHz
AO-Echo 29 Jul 02:08:13 02:09:56 12° 83° (E) 02:11:39 ?
Oscar 16 29 Jul 02:17:26 02:21:55 29° 94° (E) 02:26:22 437.025 USB, Beacon 2401.1428
JAS-1B 29 Jul 02:25:33 02:32:12 21° 79° (E) 02:38:16 435.800 - 435.900 CW/SSB
OPAL 29 Jul 02:29:04 02:31:33 14° 49° (NE) 02:34:03 ?
ITAMSAT 1 29 Jul 02:38:35 02:42:28 21° 91° (E) 02:46:19 435.822 SSB
